CHUANG XIN 1-02(CX-1-02)

Satellite information

Favourite Embed

Satellite Type and Status

PAYLOADIN ORBIT

Key statistics

Satellite CHUANG XIN 1-02(CX-1-02) at a glance.

Uptime

6149

Days in orbit

Revolutions

≈ 14.3

Per day

Orbit

SSO

Sun Synchronous Orbit

Inclination

98.6

Latest

Satellite identification and parameters

Extended collection of information and parameters for CHUANG XIN 1-02(CX-1-02).

Object identification

Identified? True

Debris? False

Object name: CHUANG XIN 1-02(CX-1-02)

International designator: 2008-056B

Object number (NORAD): 33434

Object ID (CCSDS): 33434

Country: PEOPLES REPUBLIC OF CHINA (PRC)

Current information (Y/N): Y

RCS size: MEDIUM

Orbital parameters

Period: 100.695 minutes

Inclination: 98.6435 deg

SMA: 7169.649 km

Apoapsis: 800.957 km

Periapsis: 782.071 km

RAAN: 272.6631 deg

Eccentricy: 0.00131708

Argument of periapsis: 253.6142 deg

Mean anomaly: 106.3592 deg

Mean motion: 14.30065476 rev/day

Mean motion (dot): 0.0000014 rev/day2

B* drag term: 0.000071226439 1/REarth

Two-line elements (TLE)

Creation date: Sept. 6, 2025, 2:09 a.m.

Reference frame: TEME

Reference center: EARTH

Epoch: Sept. 5, 2025, 11:05 p.m. UTC

TLE line 0: 0 CHUANG XIN 1-02(CX-1-02)

TLE line 1: 1 33434U 08056B 25248.96233848 .00000140 00000-0 71226-4 0 9997

TLE line 2: 2 33434 98.6435 272.6631 0013171 253.6142 106.3592 14.30065476877999

Live tracking on map

Real-time ground track for satellite CHUANG XIN 1-02(CX-1-02).

In-orbit conjunctions

There are no conjunctions computed for CHUANG XIN 1-02(CX-1-02), at the moment. Check back to stay up to date, as we update our databases every day.

Go to all conjunctions

Associated space launch

Chinese experimental Earth observation satellite

CHUANG XIN 1-02(CX-1-02) was lifted into orbit during the mission ‘Long March 2D | Shiyan Weixing 3’, on board a Long March 2D space rocket.

The launch took place on Nov. 5, 2008, 12:15 a.m. from Launch Area 4 (SLS-2 / 603).

For more information about the launch, click the button.

Launch to space Long March 2D | Shiyan Weixing 3
Long March 2D | Shiyan Weixing 3

Agency: N/A

Status: Launch Successful

Launch date: Nov. 5, 2008, 12:15 a.m. UTC

Rocket: Long March 2D

Launch pad: Launch Area 4 (SLS-2 / 603)

Location: Jiuquan Satellite Launch Center, People's Republic of China

...

Latest news about this satellite

There are no fresh news available about this satellite. Check back as we update our databases every day.


Newsletter sign-up

Weekly statistics, charts and insights to help you stay on top of the space industry.